TimeEST,TemperatureF,Dew PointF,Humidity,Sea Level PressureIn,VisibilityMPH,Wind Direction,Wind SpeedMPH,Gust SpeedMPH,PrecipitationIn,Events,Conditions,WindDirDegrees,DateUTC
12:14 AM,24.4,15.1,68,30.32,7.0,WSW,9.2,-,N/A,,Overcast,250,2013-01-15 05:14:00
12:34 AM,24.1,14.4,66,30.31,10.0,WSW,9.2,17.3,N/A,,Overcast,250,2013-01-15 05:34:00
12:54 AM,23.9,13.5,64,30.31,10.0,West,9.2,18.4,N/A,,Overcast,270,2013-01-15 05:54:00
1:15 AM,23.9,14.2,66,30.31,10.0,WSW,4.6,-,N/A,,Overcast,250,2013-01-15 06:15:00
1:34 AM,23.9,14.2,66,30.32,10.0,WSW,5.8,-,N/A,,Overcast,240,2013-01-15 06:34:00
1:54 AM,23.9,13.8,65,30.32,10.0,WSW,6.9,-,N/A,,Overcast,250,2013-01-15 06:54:00
2:14 AM,23.5,13.1,64,30.32,10.0,West,12.7,20.7,N/A,,Overcast,260,2013-01-15 07:14:00
2:34 AM,23.2,12.7,64,30.33,10.0,WSW,8.1,23.0,N/A,,Overcast,250,2013-01-15 07:34:00
2:55 AM,23.0,13.3,66,30.33,10.0,WSW,9.2,17.3,N/A,,Overcast,250,2013-01-15 07:55:00
3:14 AM,22.6,12.4,65,30.34,10.0,West,10.4,17.3,N/A,,Mostly Cloudy,260,2013-01-15 08:14:00
3:34 AM,22.5,11.8,64,30.34,10.0,West,8.1,19.6,N/A,,Overcast,270,2013-01-15 08:34:00
3:55 AM,21.7,10.4,62,30.34,10.0,West,9.2,17.3,N/A,,Mostly Cloudy,260,2013-01-15 08:55:00
4:14 AM,21.6,10.8,63,30.34,10.0,West,6.9,-,N/A,,Mostly Cloudy,270,2013-01-15 09:14:00
4:34 AM,20.8,10.6,65,30.34,10.0,West,10.4,16.1,N/A,,Mostly Cloudy,280,2013-01-15 09:34:00
4:55 AM,20.3,9.3,63,30.34,10.0,West,9.2,-,N/A,,Mostly Cloudy,270,2013-01-15 09:55:00
5:14 AM,20.1,9.5,63,30.34,10.0,West,4.6,-,N/A,,Mostly Cloudy,280,2013-01-15 10:14:00
5:55 AM,19.9,9.5,64,30.33,10.0,West,4.6,-,N/A,,Scattered Clouds,260,2013-01-15 10:55:00
6:14 AM,20.1,9.5,63,30.33,10.0,West,3.5,-,N/A,,Mostly Cloudy,260,2013-01-15 11:14:00
6:35 AM,20.3,9.5,63,30.34,10.0,West,4.6,-,N/A,,Mostly Cloudy,260,2013-01-15 11:35:00
6:55 AM,20.1,9.7,64,30.34,10.0,Calm,Calm,-,N/A,,Scattered Clouds,0,2013-01-15 11:55:00
7:14 AM,19.4,9.9,66,30.34,10.0,Calm,Calm,-,N/A,,Scattered Clouds,0,2013-01-15 12:14:00
7:35 AM,17.6,10.6,74,30.34,10.0,Calm,Calm,-,N/A,,Mostly Cloudy,0,2013-01-15 12:35:00
7:54 AM,17.4,11.3,77,30.34,10.0,Calm,Calm,-,N/A,,Overcast,0,2013-01-15 12:54:00
8:15 AM,16.5,11.3,80,30.33,10.0,Calm,Calm,-,N/A,,Mostly Cloudy,0,2013-01-15 13:15:00
8:34 AM,16.5,11.1,79,30.34,10.0,Calm,Calm,-,N/A,,Scattered Clouds,0,2013-01-15 13:34:00
8:55 AM,17.8,12.4,79,30.35,10.0,Calm,Calm,-,N/A,,Clear,0,2013-01-15 13:55:00
9:14 AM,19.8,12.0,72,30.35,10.0,South,6.9,-,N/A,,Clear,170,2013-01-15 14:14:00
9:35 AM,19.4,12.0,73,30.35,10.0,South,5.8,-,N/A,,Clear,170,2013-01-15 14:35:00
9:55 AM,20.3,11.8,70,30.35,10.0,South,6.9,-,N/A,,Clear,170,2013-01-15 14:55:00
10:14 AM,21.2,11.5,66,30.34,10.0,South,6.9,-,N/A,,Clear,170,2013-01-15 15:14:00
10:35 AM,22.1,11.5,64,30.33,10.0,South,6.9,-,N/A,,Clear,180,2013-01-15 15:35:00
10:55 AM,23.0,10.9,60,30.33,10.0,SW,8.1,-,N/A,,Clear,220,2013-01-15 15:55:00
11:14 AM,23.7,12.0,61,30.33,10.0,SSW,5.8,-,N/A,,Clear,210,2013-01-15 16:14:00
11:35 AM,24.4,12.6,61,30.33,10.0,SSW,9.2,-,N/A,,Clear,200,2013-01-15 16:35:00
11:55 AM,25.2,13.1,60,30.32,10.0,SSW,8.1,17.3,N/A,,Clear,210,2013-01-15 16:55:00
12:15 PM,25.5,13.8,61,30.30,10.0,SSW,10.4,17.3,N/A,,Scattered Clouds,200,2013-01-15 17:15:00
12:35 PM,26.4,14.4,60,30.29,10.0,SSW,5.8,-,N/A,,Scattered Clouds,210,2013-01-15 17:35:00
12:54 PM,27.1,14.4,59,30.28,10.0,SSW,5.8,-,N/A,,Scattered Clouds,200,2013-01-15 17:54:00
1:15 PM,26.6,13.8,59,30.27,10.0,SSW,10.4,-,N/A,,Mostly Cloudy,210,2013-01-15 18:15:00
1:35 PM,27.5,15.3,60,30.26,10.0,South,11.5,17.3,N/A,,Mostly Cloudy,190,2013-01-15 18:35:00
1:54 PM,28.0,15.1,58,30.25,10.0,SW,9.2,-,N/A,,Overcast,230,2013-01-15 18:54:00
2:34 PM,27.7,15.4,60,30.25,10.0,SSW,11.5,19.6,N/A,,Overcast,200,2013-01-15 19:34:00
2:55 PM,27.5,14.9,59,30.25,10.0,South,15.0,20.7,N/A,,Overcast,190,2013-01-15 19:55:00
3:15 PM,28.2,14.9,57,30.24,10.0,SSW,6.9,17.3,N/A,,Overcast,200,2013-01-15 20:15:00
3:34 PM,28.0,14.9,58,30.24,10.0,SSW,10.4,18.4,N/A,,Overcast,200,2013-01-15 20:34:00
3:55 PM,28.0,14.0,56,30.23,10.0,SSW,6.9,18.4,N/A,,Overcast,210,2013-01-15 20:55:00
4:15 PM,28.4,15.1,57,30.22,10.0,SSW,10.4,17.3,N/A,,Overcast,200,2013-01-15 21:15:00
4:34 PM,28.0,15.4,59,30.23,10.0,SSW,6.9,-,N/A,,Overcast,200,2013-01-15 21:34:00
4:55 PM,27.9,15.8,61,30.22,10.0,South,9.2,-,N/A,,Overcast,190,2013-01-15 21:55:00
5:15 PM,27.5,16.2,62,30.21,10.0,SSW,5.8,-,N/A,,Overcast,200,2013-01-15 22:15:00
5:35 PM,27.3,17.1,65,30.19,10.0,South,11.5,16.1,N/A,,Overcast,190,2013-01-15 22:35:00
5:55 PM,26.8,17.4,68,30.19,10.0,South,6.9,-,N/A,,Mostly Cloudy,190,2013-01-15 22:55:00
6:15 PM,26.4,17.6,69,30.19,10.0,SSW,6.9,-,N/A,,Scattered Clouds,200,2013-01-15 23:15:00
6:35 PM,26.1,18.0,71,30.19,10.0,South,6.9,-,N/A,,Scattered Clouds,190,2013-01-15 23:35:00
6:55 PM,25.5,18.1,74,30.18,10.0,South,6.9,-,N/A,,Mostly Cloudy,190,2013-01-15 23:55:00
7:14 PM,25.3,18.0,74,30.18,10.0,South,6.9,-,N/A,,Scattered Clouds,180,2013-01-16 00:14:00
7:35 PM,25.0,18.0,75,30.18,10.0,South,9.2,-,N/A,,Clear,190,2013-01-16 00:35:00
7:55 PM,24.8,18.0,75,30.17,10.0,South,8.1,-,N/A,,Scattered Clouds,190,2013-01-16 00:55:00
8:14 PM,25.5,18.3,74,30.16,10.0,South,8.1,-,N/A,,Mostly Cloudy,190,2013-01-16 01:14:00
8:35 PM,25.3,18.1,74,30.15,10.0,South,8.1,-,N/A,,Mostly Cloudy,190,2013-01-16 01:35:00
8:55 PM,25.7,18.1,73,30.14,10.0,South,6.9,-,N/A,,Scattered Clouds,190,2013-01-16 01:55:00
9:14 PM,25.9,18.1,73,30.13,10.0,SSW,8.1,-,N/A,,Mostly Cloudy,200,2013-01-16 02:14:00
9:35 PM,26.2,18.3,72,30.12,10.0,South,5.8,-,N/A,,Overcast,190,2013-01-16 02:35:00
9:55 PM,26.1,18.0,71,30.11,10.0,SSW,9.2,16.1,N/A,,Mostly Cloudy,200,2013-01-16 02:55:00
10:15 PM,25.7,17.6,71,30.10,10.0,SSW,8.1,-,N/A,,Mostly Cloudy,200,2013-01-16 03:15:00
10:35 PM,25.7,17.6,71,30.09,10.0,SSW,6.9,-,N/A,,Mostly Cloudy,200,2013-01-16 03:35:00
10:54 PM,25.7,17.6,71,30.08,10.0,SSW,6.9,-,N/A,,Mostly Cloudy,200,2013-01-16 03:54:00
11:14 PM,25.5,17.8,72,30.06,10.0,South,4.6,-,N/A,,Mostly Cloudy,190,2013-01-16 04:14:00
11:34 PM,25.3,18.0,74,30.05,10.0,SW,4.6,-,N/A,,Scattered Clouds,220,2013-01-16 04:34:00
11:54 PM,25.7,17.6,71,30.04,10.0,SSW,5.8,-,N/A,,Clear,210,2013-01-16 04:54:00